| time (UTC) | temp F | wind direction | speed MPH | gust MPH | rain 1hr in | rain 24hr in | rain mn in | humidity % | barometer mb |
| 20260902121014 | 72 | 360 | 0.0 | 0.0 | 0.00 | 0.00 | 0.00 | 15 | 1004.2 |
| 20260902120600 | 72 | 360 | 0.0 | 0.0 | 0.00 | 0.00 | 0.00 | 15 | 1004.0 |
| 20260902120036 | 72 | 360 | 0.0 | 0.0 | 0.00 | 0.00 | 0.00 | 15 | 1004.1 |
| 20260902115516 | 72 | 360 | 0.0 | 0.0 | 0.00 | 0.00 | 0.00 | 15 | 1004.0 |
| 20260902115059 | 72 | 360 | 1.0 | 0.0 | 0.00 | 0.00 | 0.00 | 15 | 1004.0 |
| 20260902114539 | 72 | 360 | 1.0 | 0.0 | 0.00 | 0.00 | 0.00 | 15 | 1004.0 |
| 20260902114021 | 71 | 360 | 1.0 | 0.0 | 0.00 | 0.00 | 0.00 | 15 | 1004.1 |
| 20260902113600 | 71 | 360 | 1.0 | 0.0 | 0.00 | 0.00 | 0.00 | 15 | 1004.1 |
| 20260902113044 | 71 | 360 | 1.0 | 0.0 | 0.00 | 0.00 | 0.00 | 15 | 1004.0 |
| 20260902112521 | 72 | 360 | 1.0 | 0.0 | 0.00 | 0.00 | 0.00 | 14 | 1003.9 |
| 20260902112106 | 72 | 360 | 0.0 | 0.0 | 0.00 | 0.00 | 0.00 | 15 | 1003.8 |
| 20260902111545 | 72 | 360 | 0.0 | 0.0 | 0.00 | 0.00 | 0.00 | 14 | 1003.8 |
| 20260902111026 | 73 | 360 | 0.0 | 0.0 | 0.00 | 0.00 | 0.00 | 13 | 1003.7 |
| 20260902110505 | 74 | 360 | 0.0 | 0.0 | 0.00 | 0.00 | 0.00 | 13 | 1003.6 |
| 20260902110049 | 75 | 360 | 0.0 | 0.0 | 0.00 | 0.00 | 0.00 | 13 | 1003.6 |
| 20260902105527 | 75 | 360 | 0.0 | 0.0 | 0.00 | 0.00 | 0.00 | 13 | 1003.4 |
| 20260902105009 | 75 | 360 | 0.0 | 0.0 | 0.00 | 0.00 | 0.00 | 13 | 1003.3 |
| 20260902104553 | 75 | 360 | 0.0 | 0.0 | 0.00 | 0.00 | 0.00 | 13 | 1003.3 |
| 20260902104034 | 75 | 360 | 0.0 | 0.0 | 0.00 | 0.00 | 0.00 | 13 | 1003.3 |
| 20260902103519 | 75 | 360 | 0.0 | 0.0 | 0.00 | 0.00 | 0.00 | 13 | 1003.4 |
| 20260902103109 | 75 | 360 | 0.0 | 0.0 | 0.00 | 0.00 | 0.00 | 13 | 1003.4 |
| 20260902102543 | 75 | 360 | 0.0 | 0.0 | 0.00 | 0.00 | 0.00 | 13 | 1003.5 |
| 20260902102022 | 76 | 360 | 0.0 | 0.0 | 0.00 | 0.00 | 0.00 | 13 | 1003.7 |
| 20260902101605 | 76 | 360 | 0.0 | 0.0 | 0.00 | 0.00 | 0.00 | 12 | 1003.6 |
| 20260902101044 | 76 | 360 | 0.0 | 0.0 | 0.00 | 0.00 | 0.00 | 12 | 1003.5 |
| 20260902100531 | 76 | 360 | 0.0 | 0.0 | 0.00 | 0.00 | 0.00 | 12 | 1003.5 |
| 20260902100013 | 76 | 360 | 0.0 | 0.0 | 0.00 | 0.00 | 0.00 | 12 | 1003.6 |
| 20260902095556 | 76 | 360 | 0.0 | 0.0 | 0.00 | 0.00 | 0.00 | 12 | 1003.6 |
| 20260902095035 | 77 | 360 | 0.0 | 0.0 | 0.00 | 0.00 | 0.00 | 12 | 1003.6 |
| 20260902094515 | 77 | 360 | 0.0 | 0.0 | 0.00 | 0.00 | 0.00 | 12 | 1003.6 |
| 20260902094059 | 77 | 360 | 0.0 | 0.0 | 0.00 | 0.00 | 0.00 | 12 | 1003.5 |
| 20260902093542 | 77 | 360 | 0.0 | 0.0 | 0.00 | 0.00 | 0.00 | 12 | 1003.7 |
| 20260902093023 | 77 | 360 | 0.0 | 0.0 | 0.00 | 0.00 | 0.00 | 13 | 1003.7 |
| 20260902092503 | 76 | 360 | 0.0 | 0.0 | 0.00 | 0.00 | 0.00 | 13 | 1003.7 |
| 20260902092050 | 76 | 360 | 0.0 | 0.0 | 0.00 | 0.00 | 0.00 | 13 | 1003.7 |
| 20260902091536 | 77 | 360 | 0.0 | 0.0 | 0.00 | 0.00 | 0.00 | 13 | 1003.7 |
| 20260902091012 | 77 | 360 | 0.0 | 0.0 | 0.00 | 0.00 | 0.00 | 13 | 1003.7 |
| 20260902090555 | 77 | 360 | 0.0 | 0.0 | 0.00 | 0.00 | 0.00 | 14 | 1003.7 |
| 20260902090033 | 77 | 217 | 0.0 | 0.0 | 0.00 | 0.00 | 0.00 | 13 | 1003.7 |
| 20260902085511 | 78 | 244 | 0.0 | 0.0 | 0.00 | 0.00 | 0.00 | 13 | 1003.7 |
| 20260902085059 | 78 | 237 | 0.0 | 0.0 | 0.00 | 0.00 | 0.00 | 13 | 1003.6 |
| 20260902084553 | 78 | 228 | 0.0 | 0.0 | 0.00 | 0.00 | 0.00 | 12 | 1003.6 |
| 20260902084019 | 79 | 246 | 0.0 | 0.0 | 0.00 | 0.00 | 0.00 | 12 | 1003.6 |
| 20260902083602 | 79 | 234 | 0.0 | 0.0 | 0.00 | 0.00 | 0.00 | 12 | 1003.6 |
| 20260902083049 | 79 | 295 | 0.0 | 0.0 | 0.00 | 0.00 | 0.00 | 12 | 1003.4 |
| 20260902082521 | 79 | 234 | 0.0 | 0.0 | 0.00 | 0.00 | 0.00 | 12 | 1003.5 |
| 20260902082106 | 79 | 283 | 0.0 | 0.0 | 0.00 | 0.00 | 0.00 | 12 | 1003.5 |
| 20260902081600 | 79 | 245 | 0.0 | 0.0 | 0.00 | 0.00 | 0.00 | 12 | 1003.6 |
| 20260902081023 | 80 | 261 | 1.0 | 0.0 | 0.00 | 0.00 | 0.00 | 12 | 1003.5 |
| 20260902080502 | 80 | 252 | 1.0 | 0.0 | 0.00 | 0.00 | 0.00 | 12 | 1003.5 |
| 20260902080044 | 80 | 211 | 0.0 | 0.0 | 0.00 | 0.00 | 0.00 | 12 | 1003.4 |
| 20260902075526 | 80 | 132 | 1.0 | 0.0 | 0.00 | 0.00 | 0.00 | 12 | 1003.3 |
| 20260902075008 | 80 | 239 | 0.0 | 0.0 | 0.00 | 0.00 | 0.00 | 12 | 1003.3 |
| 20260902074554 | 80 | 245 | 0.0 | 0.0 | 0.00 | 0.00 | 0.00 | 12 | 1003.3 |
| 20260902074030 | 80 | 283 | 1.0 | 0.0 | 0.00 | 0.00 | 0.00 | 11 | 1003.3 |
| 20260902073510 | 80 | 217 | 0.0 | 0.0 | 0.00 | 0.00 | 0.00 | 11 | 1003.3 |
| 20260902073052 | 80 | 136 | 0.0 | 0.0 | 0.00 | 0.00 | 0.00 | 11 | 1003.3 |
| 20260902072531 | 80 | 256 | 1.0 | 0.0 | 0.00 | 0.00 | 0.00 | 11 | 1003.2 |
| 20260902072011 | 80 | 166 | 1.0 | 0.0 | 0.00 | 0.00 | 0.00 | 10 | 1003.2 |
| 20260902071602 | 80 | 191 | 1.0 | 0.0 | 0.00 | 0.00 | 0.00 | 10 | 1003.1 |
| 20260902071032 | 81 | 209 | 1.0 | 0.0 | 0.00 | 0.00 | 0.00 | 10 | 1003.1 |
| 20260902070512 | 81 | 243 | 1.0 | 0.0 | 0.00 | 0.00 | 0.00 | 10 | 1002.9 |
| 20260902070054 | 81 | 247 | 1.0 | 0.0 | 0.00 | 0.00 | 0.00 | 10 | 1002.7 |
| 20260902065536 | 82 | 226 | 1.0 | 0.0 | 0.00 | 0.00 | 0.00 | 10 | 1002.9 |
| 20260902065019 | 82 | 278 | 1.0 | 0.0 | 0.00 | 0.00 | 0.00 | 9 | 1002.8 |
| 20260902064620 | 82 | 263 | 1.0 | 0.0 | 0.00 | 0.00 | 0.00 | 9 | 1002.7 |
| 20260902064041 | 82 | 210 | 1.0 | 0.0 | 0.00 | 0.00 | 0.00 | 9 | 1002.8 |
| 20260902063525 | 82 | 261 | 1.0 | 0.0 | 0.00 | 0.00 | 0.00 | 9 | 1002.7 |
| 20260902063002 | 82 | 360 | 1.0 | 0.0 | 0.00 | 0.00 | 0.00 | 10 | 1002.6 |
| 20260902062552 | 82 | 360 | 1.0 | 0.0 | 0.00 | 0.00 | 0.00 | 10 | 1002.6 |
| 20260902062030 | 83 | 360 | 1.0 | 0.0 | 0.00 | 0.00 | 0.00 | 10 | 1002.6 |
| 20260902061515 | 83 | 261 | 1.0 | 0.0 | 0.00 | 0.00 | 0.00 | 10 | 1002.6 |
| 20260902061051 | 83 | 32 | 1.0 | 0.0 | 0.00 | 0.00 | 0.00 | 11 | 1002.6 |
| 20260902060532 | 82 | 218 | 1.0 | 0.0 | 0.00 | 0.00 | 0.00 | 11 | 1002.6 |
| 20260902060012 | 82 | 296 | 1.0 | 0.0 | 0.00 | 0.00 | 0.00 | 11 | 1002.6 |
| 20260902055555 | 82 | 234 | 1.0 | 0.0 | 0.00 | 0.00 | 0.00 | 11 | 1002.8 |
| 20260902055038 | 82 | 311 | 1.0 | 0.0 | 0.00 | 0.00 | 0.00 | 11 | 1002.7 |
| 20260902054519 | 82 | 223 | 1.0 | 0.0 | 0.00 | 0.00 | 0.00 | 11 | 1002.9 |
| 20260902054103 | 82 | 216 | 1.0 | 0.0 | 0.00 | 0.00 | 0.00 | 11 | 1002.9 |
| 20260902053541 | 82 | 360 | 1.0 | 0.0 | 0.00 | 0.00 | 0.00 | 12 | 1002.9 |
| 20260902053028 | 82 | 360 | 1.0 | 0.0 | 0.00 | 0.00 | 0.00 | 12 | 1002.9 |
| 20260902052506 | 82 | 360 | 1.0 | 0.0 | 0.00 | 0.00 | 0.00 | 12 | 1002.8 |
| 20260902052049 | 82 | 360 | 1.0 | 0.0 | 0.00 | 0.00 | 0.00 | 12 | 1002.6 |
| 20260902051533 | 83 | 360 | 1.0 | 0.0 | 0.00 | 0.00 | 0.00 | 12 | 1002.7 |
| 20260902051013 | 83 | 360 | 1.0 | 0.0 | 0.00 | 0.00 | 0.00 | 12 | 1002.7 |
| 20260902050555 | 84 | 360 | 1.0 | 0.0 | 0.00 | 0.00 | 0.00 | 12 | 1002.6 |
| 20260902050038 | 84 | 360 | 1.0 | 0.0 | 0.00 | 0.00 | 0.00 | 12 | 1002.5 |
| 20260902045514 | 84 | 360 | 1.0 | 0.0 | 0.00 | 0.00 | 0.00 | 12 | 1002.7 |
| 20260902045058 | 84 | 360 | 1.0 | 0.0 | 0.00 | 0.00 | 0.00 | 12 | 1002.7 |
| 20260902044603 | 84 | 360 | 1.0 | 0.0 | 0.00 | 0.00 | 0.00 | 12 | 1002.7 |
| 20260902044021 | 84 | 360 | 1.0 | 0.0 | 0.00 | 0.00 | 0.00 | 12 | 1002.7 |
| 20260902043604 | 85 | 360 | 1.0 | 0.0 | 0.00 | 0.00 | 0.00 | 12 | 1002.6 |
| 20260902043046 | 85 | 360 | 1.0 | 0.0 | 0.00 | 0.00 | 0.00 | 12 | 1002.5 |
| 20260902042526 | 85 | 360 | 1.0 | 0.0 | 0.00 | 0.00 | 0.00 | 12 | 1002.4 |
| 20260902042006 | 85 | 360 | 1.0 | 0.0 | 0.00 | 0.00 | 0.00 | 12 | 1002.3 |
| 20260902041552 | 85 | 360 | 1.0 | 0.0 | 0.00 | 0.00 | 0.00 | 12 | 1002.1 |
| 20260902041037 | 86 | 360 | 1.0 | 0.0 | 0.00 | 0.00 | 0.00 | 12 | 1002.1 |
| 20260902040515 | 86 | 360 | 1.0 | 0.0 | 0.00 | 0.00 | 0.00 | 12 | 1002.0 |
| 20260902040109 | 86 | 360 | 2.0 | 0.0 | 0.00 | 0.00 | 0.00 | 12 | 1002.0 |
| 20260902035537 | 86 | 360 | 2.0 | 0.0 | 0.00 | 0.00 | 0.00 | 12 | 1002.2 |
| 20260902035022 | 86 | 360 | 2.0 | 0.0 | 0.00 | 0.00 | 0.00 | 13 | 1002.2 |
| 20260902034607 | 86 | 360 | 2.0 | 0.0 | 0.00 | 0.00 | 0.00 | 13 | 1002.1 |
| 20260902034042 | 86 | 360 | 1.0 | 0.0 | 0.00 | 0.00 | 0.00 | 13 | 1001.9 |
| 20260902033523 | 86 | 360 | 1.0 | 0.0 | 0.00 | 0.00 | 0.00 | 13 | 1001.9 |
| 20260902033001 | 87 | 360 | 1.0 | 0.0 | 0.00 | 0.00 | 0.00 | 13 | 1001.8 |
| 20260902032547 | 87 | 360 | 1.0 | 0.0 | 0.00 | 0.00 | 0.00 | 13 | 1001.7 |
| 20260902032027 | 87 | 360 | 1.0 | 0.0 | 0.00 | 0.00 | 0.00 | 13 | 1001.7 |
| 20260902031507 | 87 | 360 | 2.0 | 0.0 | 0.00 | 0.00 | 0.00 | 13 | 1001.6 |
| 20260902031052 | 87 | 360 | 2.0 | 0.0 | 0.00 | 0.00 | 0.00 | 13 | 1001.5 |
| 20260902030532 | 87 | 360 | 2.0 | 0.0 | 0.00 | 0.00 | 0.00 | 13 | 1001.5 |
| 20260902030011 | 88 | 360 | 2.0 | 0.0 | 0.00 | 0.00 | 0.00 | 13 | 1001.5 |
| 20260902025555 | 88 | 360 | 2.0 | 0.0 | 0.00 | 0.00 | 0.00 | 13 | 1001.6 |
| 20260902025034 | 88 | 360 | 2.0 | 0.0 | 0.00 | 0.00 | 0.00 | 13 | 1001.6 |
| 20260902024520 | 88 | 360 | 2.0 | 0.0 | 0.00 | 0.00 | 0.00 | 12 | 1001.6 |
| 20260902024102 | 88 | 360 | 2.0 | 0.0 | 0.00 | 0.00 | 0.00 | 12 | 1001.7 |
| 20260902023542 | 88 | 360 | 3.0 | 0.0 | 0.00 | 0.00 | 0.00 | 12 | 1001.6 |
| 20260902023020 | 88 | 360 | 2.0 | 0.0 | 0.00 | 0.00 | 0.00 | 12 | 1001.6 |
| 20260902022603 | 88 | 360 | 2.0 | 0.0 | 0.00 | 0.00 | 0.00 | 12 | 1001.5 |
| 20260902022042 | 88 | 360 | 2.0 | 0.0 | 0.00 | 0.00 | 0.00 | 12 | 1001.5 |
| 20260902021531 | 89 | 360 | 2.0 | 0.0 | 0.00 | 0.00 | 0.00 | 12 | 1001.5 |
| 20260902021002 | 89 | 360 | 3.0 | 0.0 | 0.00 | 0.00 | 0.00 | 11 | 1001.6 |
| 20260902020548 | 89 | 360 | 3.0 | 0.0 | 0.00 | 0.00 | 0.00 | 11 | 1001.5 |
| 20260902020027 | 90 | 360 | 3.0 | 0.0 | 0.00 | 0.00 | 0.00 | 11 | 1001.5 |
| 20260902015511 | 90 | 360 | 3.0 | 0.0 | 0.00 | 0.00 | 0.00 | 11 | 1001.9 |
| 20260902015055 | 90 | 360 | 2.0 | 0.0 | 0.00 | 0.00 | 0.00 | 11 | 1002.0 |
| 20260902014540 | 90 | 360 | 2.0 | 0.0 | 0.00 | 0.00 | 0.00 | 11 | 1002.1 |
| 20260902014014 | 90 | 360 | 2.0 | 0.0 | 0.00 | 0.00 | 0.00 | 11 | 1002.1 |
| 20260902013557 | 91 | 82 | 2.0 | 0.0 | 0.00 | 0.00 | 0.00 | 11 | 1002.2 |
| 20260902013035 | 91 | 360 | 2.0 | 0.0 | 0.00 | 0.00 | 0.00 | 11 | 1002.0 |
| 20260902012515 | 91 | 360 | 3.0 | 0.0 | 0.00 | 0.00 | 0.00 | 10 | 1002.1 |
| 20260902012057 | 92 | 227 | 2.0 | 0.0 | 0.00 | 0.00 | 0.00 | 10 | 1002.1 |
| 20260902011540 | 92 | 246 | 2.0 | 0.0 | 0.00 | 0.00 | 0.00 | 10 | 1002.2 |
| 20260902011022 | 92 | 228 | 3.0 | 0.0 | 0.00 | 0.00 | 0.00 | 10 | 1002.1 |
| 20260902010503 | 92 | 257 | 3.0 | 0.0 | 0.00 | 0.00 | 0.00 | 10 | 1002.2 |
| 20260902010047 | 93 | 279 | 3.0 | 0.0 | 0.00 | 0.00 | 0.00 | 10 | 1002.1 |
| 20260902005529 | 93 | 204 | 3.0 | 0.0 | 0.00 | 0.00 | 0.00 | 10 | 1002.2 |
| 20260902005012 | 93 | 348 | 3.0 | 0.0 | 0.00 | 0.00 | 0.00 | 9 | 1002.3 |
| 20260902004558 | 93 | 217 | 2.0 | 0.0 | 0.00 | 0.00 | 0.00 | 9 | 1002.4 |
| 20260902004036 | 94 | 9 | 2.0 | 0.0 | 0.00 | 0.00 | 0.00 | 9 | 1002.4 |
| 20260902003515 | 94 | 10 | 3.0 | 0.0 | 0.00 | 0.00 | 0.00 | 9 | 1002.4 |
| 20260902003059 | 94 | 245 | 3.0 | 0.0 | 0.00 | 0.00 | 0.00 | 9 | 1002.3 |
| 20260902002547 | 94 | 217 | 3.0 | 0.0 | 0.00 | 0.00 | 0.00 | 8 | 1002.3 |
| 20260902002026 | 94 | 179 | 3.0 | 0.0 | 0.00 | 0.00 | 0.00 | 8 | 1002.2 |
| 20260902001506 | 95 | 268 | 2.0 | 0.0 | 0.00 | 0.00 | 0.00 | 8 | 1002.2 |
| 20260902001054 | 95 | 336 | 2.0 | 0.0 | 0.00 | 0.00 | 0.00 | 8 | 1002.2 |
| 20260902000532 | 95 | 194 | 3.0 | 0.0 | 0.00 | 0.00 | 0.00 | 8 | 1002.3 |
| 20260902000013 | 95 | 342 | 2.0 | 0.0 | 0.00 | 0.00 | 0.00 | 8 | 1002.3 |
| 20260901235554 | 95 | 227 | 2.0 | 0.0 | 0.00 | 0.00 | 0.00 | 8 | 1002.3 |
| 20260901235038 | 95 | 241 | 3.0 | 0.0 | 0.00 | 0.00 | 0.00 | 8 | 1002.4 |
| 20260901234518 | 96 | 188 | 2.0 | 0.0 | 0.00 | 0.00 | 0.00 | 8 | 1002.3 |
| 20260901234101 | 95 | 282 | 3.0 | 0.0 | 0.00 | 0.00 | 0.00 | 8 | 1002.3 |
| 20260901233548 | 95 | 198 | 4.0 | 0.0 | 0.00 | 0.00 | 0.00 | 8 | 1002.3 |
| 20260901233029 | 95 | 150 | 5.0 | 0.0 | 0.00 | 0.00 | 0.00 | 7 | 1002.3 |
| 20260901232509 | 95 | 220 | 3.0 | 0.0 | 0.00 | 0.00 | 0.00 | 7 | 1002.3 |
| 20260901232053 | 96 | 319 | 3.0 | 0.0 | 0.00 | 0.00 | 0.00 | 7 | 1002.3 |
| 20260901231540 | 96 | 189 | 3.0 | 0.0 | 0.00 | 0.00 | 0.00 | 7 | 1002.3 |
| 20260901231020 | 96 | 250 | 2.0 | 0.0 | 0.00 | 0.00 | 0.00 | 7 | 1002.2 |
| 20260901230602 | 96 | 360 | 2.0 | 0.0 | 0.00 | 0.00 | 0.00 | 8 | 1002.3 |
| 20260901230048 | 96 | 360 | 2.0 | 0.0 | 0.00 | 0.00 | 0.00 | 8 | 1002.3 |
| 20260901225522 | 96 | 360 | 3.0 | 0.0 | 0.00 | 0.00 | 0.00 | 8 | 1002.1 |
| 20260901225002 | 96 | 360 | 3.0 | 0.0 | 0.00 | 0.00 | 0.00 | 7 | 1002.3 |
| 20260901224546 | 96 | 360 | 2.0 | 0.0 | 0.00 | 0.00 | 0.00 | 8 | 1002.2 |
| 20260901224025 | 96 | 360 | 2.0 | 0.0 | 0.00 | 0.00 | 0.00 | 9 | 1002.2 |
| 20260901223504 | 96 | 360 | 3.0 | 0.0 | 0.00 | 0.00 | 0.00 | 9 | 1002.2 |
| 20260901223053 | 96 | 360 | 3.0 | 0.0 | 0.00 | 0.00 | 0.00 | 9 | 1002.3 |
| 20260901222538 | 97 | 360 | 3.0 | 0.0 | 0.00 | 0.00 | 0.00 | 9 | 1002.4 |
| 20260901222021 | 96 | 360 | 2.0 | 0.0 | 0.00 | 0.00 | 0.00 | 9 | 1002.4 |
| 20260901221604 | 97 | 360 | 3.0 | 0.0 | 0.00 | 0.00 | 0.00 | 9 | 1002.4 |
| 20260901221044 | 97 | 360 | 3.0 | 0.0 | 0.00 | 0.00 | 0.00 | 9 | 1002.5 |
| 20260901220523 | 97 | 360 | 3.0 | 0.0 | 0.00 | 0.00 | 0.00 | 9 | 1002.4 |
| 20260901220001 | 97 | 360 | 2.0 | 0.0 | 0.00 | 0.00 | 0.00 | 9 | 1002.5 |
| 20260901215547 | 97 | 360 | 2.0 | 0.0 | 0.00 | 0.00 | 0.00 | 9 | 1002.6 |
| 20260901215026 | 97 | 360 | 3.0 | 0.0 | 0.00 | 0.00 | 0.00 | 9 | 1002.7 |
| 20260901214509 | 97 | 360 | 3.0 | 0.0 | 0.00 | 0.00 | 0.00 | 9 | 1002.5 |
| 20260901214056 | 98 | 360 | 2.0 | 0.0 | 0.00 | 0.00 | 0.00 | 9 | 1002.4 |
| 20260901213541 | 97 | 360 | 2.0 | 0.0 | 0.00 | 0.00 | 0.00 | 9 | 1002.6 |
| 20260901213020 | 96 | 360 | 2.0 | 0.0 | 0.00 | 0.00 | 0.00 | 9 | 1002.8 |
| 20260901212602 | 96 | 360 | 2.0 | 0.0 | 0.00 | 0.00 | 0.00 | 9 | 1002.8 |
| 20260901212042 | 96 | 360 | 3.0 | 0.0 | 0.00 | 0.00 | 0.00 | 8 | 1003.1 |
| 20260901211522 | 97 | 360 | 3.0 | 0.0 | 0.00 | 0.00 | 0.00 | 8 | 1003.0 |
| 20260901211001 | 97 | 360 | 2.0 | 0.0 | 0.00 | 0.00 | 0.00 | 10 | 1002.9 |
| 20260901210548 | 96 | 360 | 2.0 | 0.0 | 0.00 | 0.00 | 0.00 | 10 | 1003.3 |
| 20260901210031 | 96 | 360 | 2.0 | 0.0 | 0.00 | 0.00 | 0.00 | 10 | 1003.4 |
| 20260901205513 | 96 | 360 | 2.0 | 0.0 | 0.00 | 0.00 | 0.00 | 10 | 1003.4 |
| 20260901205059 | 95 | 360 | 2.0 | 0.0 | 0.00 | 0.00 | 0.00 | 11 | 1003.5 |
| 20260901204544 | 96 | 360 | 2.0 | 0.0 | 0.00 | 0.00 | 0.00 | 10 | 1003.5 |
| 20260901204013 | 96 | 360 | 2.0 | 0.0 | 0.00 | 0.00 | 0.00 | 10 | 1003.9 |
| 20260901203557 | 95 | 360 | 3.0 | 0.0 | 0.00 | 0.00 | 0.00 | 10 | 1003.9 |
| 20260901203039 | 95 | 360 | 3.0 | 0.0 | 0.00 | 0.00 | 0.00 | 10 | 1003.9 |
| 20260901202518 | 95 | 360 | 3.0 | 0.0 | 0.00 | 0.00 | 0.00 | 10 | 1004.0 |
| 20260901202101 | 95 | 360 | 3.0 | 0.0 | 0.00 | 0.00 | 0.00 | 9 | 1004.1 |
| 20260901201546 | 95 | 360 | 2.0 | 0.0 | 0.00 | 0.00 | 0.00 | 10 | 1004.0 |
| 20260901201025 | 96 | 360 | 2.0 | 0.0 | 0.00 | 0.00 | 0.00 | 10 | 1004.1 |
| 20260901200508 | 95 | 360 | 2.0 | 0.0 | 0.00 | 0.00 | 0.00 | 10 | 1004.1 |
| 20260901200052 | 95 | 360 | 2.0 | 0.0 | 0.00 | 0.00 | 0.00 | 10 | 1004.3 |
| 20260901195531 | 95 | 360 | 2.0 | 0.0 | 0.00 | 0.00 | 0.00 | 10 | 1004.1 |
| 20260901195008 | 95 | 360 | 2.0 | 0.0 | 0.00 | 0.00 | 0.00 | 12 | 1004.2 |
| 20260901194552 | 95 | 360 | 2.0 | 0.0 | 0.00 | 0.00 | 0.00 | 11 | 1004.3 |
| 20260901194030 | 95 | 360 | 2.0 | 0.0 | 0.00 | 0.00 | 0.00 | 13 | 1004.2 |
| 20260901193511 | 93 | 360 | 2.0 | 0.0 | 0.00 | 0.00 | 0.00 | 16 | 1004.4 |
| 20260901193111 | 94 | 360 | 3.0 | 0.0 | 0.00 | 0.00 | 0.00 | 16 | 1004.3 |
| 20260901192535 | 93 | 360 | 2.0 | 0.0 | 0.00 | 0.00 | 0.00 | 16 | 1004.5 |
| 20260901192014 | 93 | 360 | 2.0 | 0.0 | 0.00 | 0.00 | 0.00 | 17 | 1004.7 |
| 20260901191556 | 92 | 360 | 2.0 | 0.0 | 0.00 | 0.00 | 0.00 | 18 | 1004.9 |
| 20260901191040 | 93 | 360 | 2.0 | 0.0 | 0.00 | 0.00 | 0.00 | 17 | 1004.8 |
| 20260901190517 | 92 | 360 | 2.0 | 0.0 | 0.00 | 0.00 | 0.00 | 18 | 1004.7 |
| 20260901190110 | 92 | 360 | 2.0 | 0.0 | 0.00 | 0.00 | 0.00 | 18 | 1004.8 |
| 20260901185536 | 93 | 360 | 2.0 | 0.0 | 0.00 | 0.00 | 0.00 | 17 | 1004.7 |
| 20260901185014 | 92 | 360 | 2.0 | 0.0 | 0.00 | 0.00 | 0.00 | 17 | 1004.7 |
| 20260901184558 | 92 | 360 | 3.0 | 0.0 | 0.00 | 0.00 | 0.00 | 18 | 1004.8 |
| 20260901184036 | 92 | 360 | 2.0 | 0.0 | 0.00 | 0.00 | 0.00 | 18 | 1004.9 |
| 20260901183515 | 92 | 360 | 2.0 | 0.0 | 0.00 | 0.00 | 0.00 | 17 | 1004.9 |
| 20260901183056 | 92 | 360 | 2.0 | 0.0 | 0.00 | 0.00 | 0.00 | 17 | 1005.0 |
| 20260901182535 | 91 | 360 | 2.0 | 0.0 | 0.00 | 0.00 | 0.00 | 17 | 1005.0 |
| 20260901182016 | 91 | 360 | 2.0 | 0.0 | 0.00 | 0.00 | 0.00 | 18 | 1005.1 |
| 20260901181602 | 91 | 360 | 2.0 | 0.0 | 0.00 | 0.00 | 0.00 | 20 | 1005.0 |
| 20260901181035 | 91 | 360 | 2.0 | 0.0 | 0.00 | 0.00 | 0.00 | 19 | 1005.1 |
| 20260901180513 | 91 | 360 | 2.0 | 0.0 | 0.00 | 0.00 | 0.00 | 22 | 1005.2 |
| 20260901180059 | 90 | 360 | 2.0 | 0.0 | 0.00 | 0.00 | 0.00 | 22 | 1005.2 |
| 20260901175535 | 91 | 360 | 2.0 | 0.0 | 0.00 | 0.00 | 0.00 | 21 | 1005.2 |
| 20260901175014 | 90 | 360 | 2.0 | 0.0 | 0.00 | 0.00 | 0.00 | 21 | 1005.2 |
| 20260901174559 | 90 | 360 | 2.0 | 0.0 | 0.00 | 0.00 | 0.00 | 21 | 1005.3 |
| 20260901174039 | 90 | 360 | 2.0 | 0.0 | 0.00 | 0.00 | 0.00 | 20 | 1005.3 |
| 20260901173520 | 90 | 360 | 1.0 | 0.0 | 0.00 | 0.00 | 0.00 | 20 | 1005.3 |
| 20260901173059 | 90 | 360 | 2.0 | 0.0 | 0.00 | 0.00 | 0.00 | 18 | 1005.2 |
| 20260901172544 | 88 | 360 | 3.0 | 0.0 | 0.00 | 0.00 | 0.00 | 17 | 1005.7 |
| 20260901172018 | 86 | 360 | 4.0 | 0.0 | 0.00 | 0.00 | 0.00 | 17 | 1005.7 |
| 20260901171614 | 86 | 360 | 4.0 | 0.0 | 0.00 | 0.00 | 0.00 | 18 | 1005.7 |
| 20260901171045 | 86 | 360 | 4.0 | 0.0 | 0.00 | 0.00 | 0.00 | 20 | 1005.7 |
| 20260901170524 | 85 | 360 | 4.0 | 0.0 | 0.00 | 0.00 | 0.00 | 18 | 1005.7 |
| 20260901170003 | 85 | 360 | 4.0 | 0.0 | 0.00 | 0.00 | 0.00 | 18 | 1005.7 |
| 20260901165548 | 86 | 360 | 4.0 | 0.0 | 0.00 | 0.00 | 0.00 | 18 | 1005.6 |
| 20260901165024 | 86 | 360 | 4.0 | 0.0 | 0.00 | 0.00 | 0.00 | 17 | 1005.6 |
| 20260901164606 | 86 | 360 | 3.0 | 0.0 | 0.00 | 0.00 | 0.00 | 17 | 1005.6 |
| 20260901164052 | 85 | 360 | 4.0 | 0.0 | 0.00 | 0.00 | 0.00 | 18 | 1005.5 |
| 20260901163527 | 85 | 360 | 4.0 | 0.0 | 0.00 | 0.00 | 0.00 | 19 | 1005.7 |
| 20260901163009 | 84 | 360 | 4.0 | 0.0 | 0.00 | 0.00 | 0.00 | 19 | 1005.7 |
| 20260901162551 | 84 | 360 | 3.0 | 0.0 | 0.00 | 0.00 | 0.00 | 23 | 1005.7 |
| 20260901162025 | 84 | 360 | 3.0 | 0.0 | 0.00 | 0.00 | 0.00 | 25 | 1005.7 |
| 20260901161504 | 83 | 360 | 3.0 | 0.0 | 0.00 | 0.00 | 0.00 | 25 | 1005.7 |
| 20260901161050 | 84 | 360 | 3.0 | 0.0 | 0.00 | 0.00 | 0.00 | 23 | 1005.8 |
| 20260901160532 | 83 | 360 | 4.0 | 0.0 | 0.00 | 0.00 | 0.00 | 22 | 1005.7 |
| 20260901160013 | 83 | 360 | 4.0 | 0.0 | 0.00 | 0.00 | 0.00 | 22 | 1005.9 |
| 20260901155554 | 83 | 360 | 4.0 | 0.0 | 0.00 | 0.00 | 0.00 | 21 | 1005.8 |
| 20260901155032 | 83 | 360 | 4.0 | 0.0 | 0.00 | 0.00 | 0.00 | 21 | 1005.9 |
| 20260901154509 | 83 | 360 | 3.0 | 0.0 | 0.00 | 0.00 | 0.00 | 19 | 1005.8 |
| 20260901154056 | 83 | 360 | 3.0 | 0.0 | 0.00 | 0.00 | 0.00 | 20 | 1005.7 |
| 20260901153532 | 83 | 360 | 3.0 | 0.0 | 0.00 | 0.00 | 0.00 | 19 | 1005.7 |
| 20260901153012 | 82 | 360 | 3.0 | 0.0 | 0.00 | 0.00 | 0.00 | 21 | 1005.7 |
| 20260901152554 | 82 | 360 | 3.0 | 0.0 | 0.00 | 0.00 | 0.00 | 22 | 1005.6 |
| 20260901152031 | 81 | 360 | 3.0 | 0.0 | 0.00 | 0.00 | 0.00 | 23 | 1005.6 |
| 20260901151506 | 81 | 360 | 3.0 | 0.0 | 0.00 | 0.00 | 0.00 | 22 | 1005.8 |
| 20260901151049 | 81 | 360 | 3.0 | 0.0 | 0.00 | 0.00 | 0.00 | 24 | 1005.8 |
| 20260901150528 | 81 | 360 | 3.0 | 0.0 | 0.00 | 0.00 | 0.00 | 25 | 1005.8 |
| 20260901150010 | 80 | 360 | 3.0 | 0.0 | 0.00 | 0.00 | 0.00 | 24 | 1005.6 |
| 20260901145549 | 80 | 360 | 3.0 | 0.0 | 0.00 | 0.00 | 0.00 | 25 | 1005.6 |
| 20260901145029 | 80 | 360 | 3.0 | 0.0 | 0.00 | 0.00 | 0.00 | 26 | 1005.7 |
| 20260901144506 | 80 | 360 | 3.0 | 0.0 | 0.00 | 0.00 | 0.00 | 25 | 1005.6 |
| 20260901144048 | 79 | 360 | 3.0 | 0.0 | 0.00 | 0.00 | 0.00 | 26 | 1005.6 |
| 20260901143526 | 79 | 360 | 3.0 | 0.0 | 0.00 | 0.00 | 0.00 | 26 | 1005.6 |
| 20260901143004 | 78 | 360 | 2.0 | 0.0 | 0.00 | 0.00 | 0.00 | 26 | 1005.5 |
| 20260901142548 | 78 | 360 | 2.0 | 0.0 | 0.00 | 0.00 | 0.00 | 28 | 1005.6 |
| 20260901142029 | 77 | 360 | 2.0 | 0.0 | 0.00 | 0.00 | 0.00 | 30 | 1005.6 |
| 20260901141513 | 76 | 360 | 2.0 | 0.0 | 0.00 | 0.00 | 0.00 | 33 | 1005.5 |
| 20260901141057 | 76 | 360 | 1.0 | 0.0 | 0.00 | 0.00 | 0.00 | 34 | 1005.7 |
| 20260901140538 | 76 | 360 | 0.0 | 0.0 | 0.00 | 0.00 | 0.00 | 35 | 1005.6 |
| 20260901140018 | 75 | 360 | 0.0 | 0.0 | 0.00 | 0.00 | 0.00 | 37 | 1005.6 |
| 20260901135602 | 75 | 360 | 0.0 | 0.0 | 0.00 | 0.00 | 0.00 | 38 | 1005.3 |
| 20260901135045 | 74 | 360 | 0.0 | 0.0 | 0.00 | 0.00 | 0.00 | 42 | 1005.2 |
| 20260901134525 | 73 | 360 | 0.0 | 0.0 | 0.00 | 0.00 | 0.00 | 43 | 1005.2 |
| 20260901134004 | 73 | 360 | 0.0 | 0.0 | 0.00 | 0.00 | 0.00 | 45 | 1005.3 |
| 20260901133552 | 73 | 360 | 0.0 | 0.0 | 0.00 | 0.00 | 0.00 | 46 | 1005.3 |
| 20260901133032 | 72 | 360 | 0.0 | 0.0 | 0.00 | 0.00 | 0.00 | 46 | 1005.2 |
| 20260901132514 | 72 | 360 | 0.0 | 0.0 | 0.00 | 0.00 | 0.00 | 46 | 1005.3 |
| 20260901132054 | 72 | 360 | 0.0 | 0.0 | 0.00 | 0.00 | 0.00 | 45 | 1005.2 |
| 20260901131542 | 73 | 360 | 0.0 | 0.0 | 0.00 | 0.00 | 0.00 | 43 | 1005.2 |
| 20260901131022 | 73 | 360 | 0.0 | 0.0 | 0.00 | 0.00 | 0.00 | 42 | 1005.0 |
| 20260901130502 | 74 | 360 | 0.0 | 0.0 | 0.00 | 0.00 | 0.00 | 39 | 1005.0 |
| 20260901130045 | 74 | 360 | 0.0 | 0.0 | 0.00 | 0.00 | 0.00 | 38 | 1005.0 |
| 20260901125525 | 74 | 360 | 0.0 | 0.0 | 0.00 | 0.00 | 0.00 | 36 | 1004.7 |
| 20260901125004 | 74 | 360 | 0.0 | 0.0 | 0.00 | 0.00 | 0.00 | 38 | 1004.6 |
| 20260901124554 | 74 | 360 | 0.0 | 0.0 | 0.00 | 0.00 | 0.00 | 38 | 1004.5 |
| 20260901124027 | 74 | 360 | 0.0 | 0.0 | 0.00 | 0.00 | 0.00 | 37 | 1004.6 |
| 20260901123506 | 75 | 360 | 0.0 | 0.0 | 0.00 | 0.00 | 0.00 | 35 | 1004.5 |
| 20260901123052 | 75 | 360 | 0.0 | 0.0 | 0.00 | 0.00 | 0.00 | 33 | 1004.6 |
| 20260901122531 | 75 | 360 | 0.0 | 0.0 | 0.00 | 0.00 | 0.00 | 32 | 1004.5 |
| 20260901122009 | 75 | 360 | 1.0 | 0.0 | 0.00 | 0.00 | 0.00 | 31 | 1004.5 |
| 20260901121557 | 75 | 360 | 1.0 | 0.0 | 0.00 | 0.00 | 0.00 | 30 | 1004.5 |